GW3137 Weather Reports


Display with metric or nautical units.
time (UTC)temp
F
wind
direction
speed
MPH
gust
MPH
rain 1hr
in
rain 24hr
in
rain mn
in
humidity
%
barometer
mb
20260831203704 75 290 3.0 10.0 0.00 0.00 0.00 56 1010.4
20260831203204 74 314 5.0 12.0 0.00 0.00 0.00 56 1010.5
20260831200704 74 287 3.0 9.0 0.00 0.00 0.00 59 1010.7
20260831200204 73 4 5.0 12.0 0.00 0.00 0.00 60 1010.7
20260831193203 72 310 4.0 12.0 0.00 0.00 0.00 62 1011.2
20260831190704 71 266 3.0 10.0 0.00 0.00 0.00 62 1011.6
20260831190204 70 43 3.0 12.0 0.00 0.00 0.00 64 1011.7
20260831183703 69 352 5.0 10.0 0.00 0.00 0.00 67 1012.0
20260831183204 68 309 1.0 12.0 0.00 0.00 0.00 68 1012.1
20260831180704 66 332 3.0 8.0 0.00 0.00 0.00 71 1012.4
20260831180203 66 297 2.0 9.0 0.00 0.00 0.00 71 1012.4
20260831173704 64 302 4.0 12.0 0.00 0.00 0.00 73 1012.7
20260831170203 62 350 3.0 7.0 0.00 0.00 0.00 78 1012.9
20260831163704 61 283 2.0 5.0 0.00 0.00 0.00 79 1013.2
20260831163203 61 346 1.0 6.0 0.00 0.00 0.00 80 1013.3
20260831160704 60 316 2.0 5.0 0.00 0.00 0.00 81 1013.5
20260831160204 60 332 2.0 6.0 0.00 0.00 0.00 82 1013.5
20260831153704 59 345 1.0 3.0 0.00 0.00 0.00 83 1013.7
20260831153204 59 19 3.0 7.0 0.00 0.00 0.00 84 1013.8
20260831150704 58 25 2.0 3.0 0.00 0.00 0.00 85 1013.8
20260831150203 58 10 1.0 3.0 0.00 0.00 0.00 85 1013.8
20260831143704 57 26 1.0 2.0 0.00 0.00 0.00 86 1013.7
20260831143204 57 26 1.0 2.0 0.00 0.00 0.00 86 1013.6
20260831140704 57 26 0.0 0.0 0.00 0.00 0.00 87 1013.7
20260831140204 56 26 0.0 2.0 0.00 0.00 0.00 87 1013.7
20260831133703 57 26 1.0 2.0 0.00 0.00 0.00 87 1013.5
20260831133203 57 24 0.0 3.0 0.00 0.00 0.00 87 1013.5
20260831130704 57 14 1.0 3.0 0.00 0.00 0.00 86 1013.6
20260831130204 57 355 2.0 3.0 0.00 0.00 0.00 86 1013.7
20260831123704 58 15 1.0 3.0 0.00 0.00 0.00 86 1013.8
20260831123204 58 338 2.0 9.0 0.00 0.00 0.00 86 1013.8
20260831120704 58 353 2.0 5.0 0.00 0.00 0.00 85 1014.0
20260831120204 58 347 2.0 7.0 0.00 0.00 0.00 85 1014.0
20260831113703 58 0 1.0 3.0 0.00 0.00 0.00 85 1014.3
20260831113203 58 0 2.0 3.0 0.00 0.00 0.00 84 1014.3
20260831110704 58 355 1.0 3.0 0.00 0.00 0.00 83 1014.4
20260831110203 58 355 1.0 5.0 0.00 0.00 0.00 83 1014.5
20260831103704 59 12 2.0 3.0 0.00 0.00 0.00 82 1014.6
20260831103204 59 18 3.0 6.0 0.00 0.00 0.00 82 1014.7
20260831100704 59 25 3.0 6.0 0.00 0.00 0.00 81 1014.8
20260831093704 60 22 3.0 7.0 0.00 0.00 0.00 80 1015.1
20260831093204 60 5 2.0 5.0 0.00 0.00 0.00 80 1015.2
20260831090704 60 24 3.0 5.0 0.00 0.00 0.00 80 1015.5
20260831083703 61 30 2.0 5.0 0.00 0.00 0.00 80 1015.5
20260831083204 61 31 2.0 8.0 0.00 0.00 0.00 80 1015.5
20260831080704 61 30 2.0 3.0 0.00 0.00 0.00 79 1015.7
20260831073703 61 32 1.0 3.0 0.00 0.00 0.00 76 1015.9
20260831073204 61 32 1.0 3.0 0.00 0.00 0.00 76 1015.9
20260831070704 62 32 1.0 2.0 0.00 0.00 0.00 74 1016.2
20260831070203 62 32 1.0 3.0 0.00 0.00 0.00 74 1016.2
20260831063704 62 32 0.0 1.0 0.00 0.00 0.00 72 1016.4
20260831060703 63 32 1.0 2.0 0.00 0.00 0.00 71 1016.7
20260831060203 63 32 1.0 5.0 0.00 0.00 0.00 70 1016.7
20260831053703 63 28 1.0 3.0 0.00 0.00 0.00 71 1017.0
20260831053204 64 24 1.0 3.0 0.00 0.00 0.00 71 1017.1
20260831050703 64 14 1.0 3.0 0.00 0.00 0.00 71 1017.2
20260831043703 65 17 1.0 2.0 0.00 0.00 0.00 69 1017.3
20260831043203 65 39 1.0 5.0 0.00 0.00 0.00 68 1017.4
20260831040704 66 356 1.0 3.0 0.00 0.00 0.00 66 1017.4
20260831040204 66 355 2.0 5.0 0.00 0.00 0.00 66 1017.3
20260831033704 67 326 2.0 7.0 0.00 0.00 0.00 62 1017.3
20260831030203 68 343 1.0 3.0 0.00 0.00 0.00 59 1017.1
20260831023704 69 299 2.0 3.0 0.00 0.00 0.00 56 1017.2
20260831020704 70 331 2.0 7.0 0.00 0.00 0.00 55 1017.4
20260831020204 71 279 2.0 10.0 0.00 0.00 0.00 55 1017.4
20260831013703 72 19 1.0 3.0 0.00 0.00 0.00 52 1017.5
20260831013204 73 306 2.0 9.0 0.00 0.00 0.00 50 1017.5
20260831010704 74 284 2.0 3.0 0.00 0.00 0.00 49 1017.7
20260831010204 74 287 2.0 8.0 0.00 0.00 0.00 49 1017.7
20260831003704 74 227 1.0 6.0 0.00 0.00 0.00 48 1017.9
20260831003204 75 316 2.0 8.0 0.00 0.00 0.00 48 1017.9
20260831000704 73 352 2.0 6.0 0.00 0.00 0.00 50 1018.1
20260831000204 73 277 3.0 8.0 0.00 0.00 0.00 50 1018.2
20260830233704 74 26 2.0 5.0 0.00 0.00 0.00 52 1018.4
20260830233204 73 291 2.0 8.0 0.00 0.00 0.00 52 1018.3
20260830230704 74 22 3.0 9.0 0.00 0.00 0.00 51 1018.4
20260830230204 74 246 4.0 10.0 0.00 0.00 0.00 51 1018.4
20260830223704 73 287 5.0 10.0 0.00 0.00 0.00 53 1018.8
20260830223204 73 268 4.0 10.0 0.00 0.00 0.00 52 1018.8
20260830220704 74 167 3.0 6.0 0.00 0.00 0.00 52 1018.8
20260830220204 74 219 3.0 10.0 0.00 0.00 0.00 52 1018.9
20260830213203 72 264 3.0 7.0 0.00 0.00 0.00 56 1019.3
20260830210204 72 277 3.0 12.0 0.00 0.00 0.00 55 1019.5